Regional Weather Roundup
Issued by NWS

Home | Current Version | Previous Version | Graphics & Text | Print | Product List | Glossary On
Versions: 1 2 3 4 5 6 7 8 9 10 11 12 13 14 15 16 17 18 19 20 21 22 23 24 25 26 27
000
ASUS45 KBOU 300807
RWRCO

WEATHER ROUNDUP FOR COLORADO
NATIONAL WEATHER SERVICE DENVER/BOULDER CO
200 AM MDT SAT JUL 30 2016

NOTE: "FAIR" INDICATES FEW OR NO CLOUDS BELOW 12000 FEET WITH NO
SIGNIFICANT WEATHER AND/OR OBSTRUCTIONS TO VISIBILITY.

COZ001>005-013-030-031-300900-
...NORTHWEST COLORADO...

CITY           SKY/WX    TMP DP  RH WIND       PRES   REMARKS
CRAIG          FAIR      54  42  64 E3        30.11F
HAYDEN         FAIR      61  34  36 E9        30.14S
MEEKER         FAIR      57  40  52 NE5       30.14S
MOUNT WERNER   NOT AVBL
STEAMBOAT SPGS FAIR      54  38  53 CALM      30.17S
WALDEN         FAIR      43  32  65 SE8       30.27S
$$

COZ006>008-011-300900-
...WEST CENTRAL VALLEYS...

CITY           SKY/WX    TMP DP  RH WIND       PRES   REMARKS
GRAND JUNCTION FAIR      70  37  29 SE10      29.98S
MONTROSE       FAIR      71  38  29 SE9       30.08F
EAGLE          FAIR      63  36  36 CALM      30.18S
RIFLE          FAIR      65  39  38 E5        30.07S
DELTA          NOT AVBL
NUCLA          NOT AVBL
$$

COZ017>023-064>068-300900-
...SOUTHWEST COLORADO...

CITY           SKY/WX    TMP DP  RH WIND       PRES   REMARKS
DURANGO        FAIR      65  43  44 NE8       30.23F
CORTEZ         FAIR      72  45  37 CALM      30.13R
PAGOSA SPRINGS FAIR      56  38  50 NE3       30.34S
TELLURIDE      FAIR      65  32  28 CALM      30.40S
WOLF CREEK PAS MOCLDY    46  36  66 SW23G32   30.65S
$$

COZ009-010-012-014-032>034-037-058>063-300900-
...CENTRAL COLORADO...

CITY           SKY/WX    TMP DP  RH WIND       PRES   REMARKS
ASPEN          FAIR      56  36  47 SW6       30.25F
BUENA VISTA    FAIR      58  50  75 CALM      30.32F
COPPER MTN     FAIR      54  34  47 SW5       30.60F
BERTHOUD PASS  FAIR      48  34  57 W6G20     30.62R
COTTONWOOD PAS FAIR      57  46  67 CALM      30.45F
GUNNISON       FAIR      55  36  47 CALM      30.30S
KREMMLING      FAIR      50  36  57 CALM      30.24S
LEADVILLE      FAIR      47  37  68 NE6       30.44F
MONARCH PASS   MOCLDY    52  36  54 S7        30.72S
SALIDA         FAIR      61  52  71 SW8       30.37S
SUNLIGHT       FAIR      63  32  31 MISG      30.52F
WILKERSON PASS CLOUDY    50  45  81 SW3       30.58F
$$

COZ069>075-300900-
...SAN LUIS VALLEY/SANGRE DE CRISTO MOUNTAINS...

CITY           SKY/WX    TMP DP  RH WIND       PRES   REMARKS
ALAMOSA        FAIR      58  42  55 E6        30.26F
LA VETA PASS   FAIR      52  45  76 S7        30.47F
SAGUACHE       MOCLDY    64  43  45 S5        30.32F
$$

COZ035-036-038>040-300900-
...NORTHERN COLORADO FRONT RANGE...

CITY           SKY/WX    TMP DP  RH WIND       PRES   REMARKS
DENVER INTL AP MOCLDY    68  60  75 SE13      30.11F
DMNS CITY PARK   N/A     65  59  80 NW3       30.10F
AURORA         PTCLDY    68  60  75 S18       30.12F
FRONT RANGE AP NOT AVBL
ERIE MUNI ARPT FAIR      63  59  86 CALM      30.11F
BOULDER MUN AP FAIR      64  59  82 N3        30.11F
CENTENNIAL     FAIR      67  58  72 SE10      30.14F
BROOMFIELD     FAIR      64  59  82 NW10      30.13F
LONGMONT       NOT AVBL
$$

COZ041-046-047-076>085-087-088-300900-
...PIKES PEAK/PALMER DIVIDE AND SOUTHERN FOOTHILLS...

CITY           SKY/WX    TMP DP  RH WIND       PRES   REMARKS
COLO. SPRINGS  CLOUDY    65  59  81 SE10      30.25S
A. F. ACADEMY  CLOUDY    64  60  89 S17       30.23F
SCHRIEVER AFB  NOT AVBL
ELLICOTT       NOT AVBL
FALCON         NOT AVBL
FORT CARSON    CLOUDY    64  61  87 SE7       30.21F
LIMON          FAIR      63  61  93 SE13      30.18F
MONUMENT HILL  FAIR      59  55  88 S14G20    30.27S
TRINIDAD       NOT AVBL
$$

COZ042>045-048>051-090-091-300900-
...NORTHEAST COLORADO...

CITY           SKY/WX    TMP DP  RH WIND       PRES   REMARKS
GREELEY ARPT   FAIR      63  61  94 E9        30.10F
AKRON          FAIR      65  58  78 S12       30.08F
BURLINGTON     FAIR      63  56  78 SW14      30.06F
WRAY           NOT AVBL
STERLING       NOT AVBL
HOLYOKE        NOT AVBL
FORT MORGAN    NOT AVBL
$$

COZ086-089-092>099-300900-
...SOUTHEAST COLORADO...

CITY           SKY/WX    TMP DP  RH WIND       PRES   REMARKS
PUEBLO         FAIR      70  61  73 E8        30.12F
LA JUNTA       FAIR      68  62  81 E14       30.10F
LAMAR          FAIR      67  65  93 NE7       30.10F
SPRINGFIELD      N/A     59  57  93 W6        30.15R
$$




USA.gov is the U.S. government's official web portal to all federal, state and local government web resources and services.